Weather History for Calgary Springbank, AB

Change the Weather History Date:

Monday, April 8, 2013

  Actual Average Record
Temperature  
Mean Temperature 18 °F -  
Max Temperature 23 °F 49 °F 62 °F (2014)
Min Temperature 12 °F 26 °F 3 °F (1997)
Degree Days  
Heating Degree Days 48    
Moisture  
Dew Point 11 °F    
Average Humidity 77    
Maximum Humidity 92    
Minimum Humidity 59    
Precipitation  
Precipitation 0.12 in - - ()
Sea Level Pressure  
Sea Level Pressure 30.41 in    
Wind  
Wind Speed 7 mph ()    
Max Wind Speed 10 mph    
Max Gust Speed -    
Visibility 9.0 miles    
Events Snow    
Averages and records for this station are not official NWS values.
T = Trace of Precipitation, MM = Missing Value Source: Averaged Metar Reports

Daily Weather History Graph

Daily Weather History Graph

Search for Another Location

Airport:

Trip Planner

Search our weather history database for the weather conditions in past years. The results will help you decide how hot, cold, wet, or windy it might be!

Date:

Astronomy

Apr. 08, 2013 Rise Set
Actual Time 6:56 AM MDT 8:22 PM MDT
Civil Twilight 6:22 AM MDT 8:57 PM MDT
Nautical Twilight 5:40 AM MDT 9:39 PM MDT
Astronomical Twilight 4:55 AM MDT 10:25 PM MDT
Moon 5:58 AM MDT (4/8) 6:55 PM MDT (4/8)
Length of Visible Light 14h 34m
Length of Day
13h 25m
Waning Crescent, 3% of the Moon is Illuminated
Apr 8
Waning Crescent
Apr 10
New
Apr 18
First Quarter
Apr 25
Full
May 2
Last Quarter

Hourly Weather History & Observations

Time (MDT) Temp. Windchill Dew Point Humidity Pressure Visibility Wind Dir Wind Speed Gust Speed Precip Events Conditions
5:00 AM 14.0 °F 2.9 °F 10.4 °F 86% 30.30 in 4.0 mi East 8.1 mph - N/A Snow Light Snow
6:00 AM 13 °F - 10 °F 83% 30.32 in 4 mi East 8.1 mph - - Snow Light Snow
6:00 AM 12.2 °F 0.7 °F 10.4 °F 92% 30.32 in 4.0 mi East 8.1 mph - N/A Snow Light Snow
6:40 AM 12.2 °F 0.7 °F 10.4 °F 92% 30.33 in 2.0 mi East 8.1 mph - N/A Snow Light Snow
7:00 AM 12.2 °F 2.9 °F 10.4 °F 92% 30.34 in 2.2 mi East 5.8 mph - N/A Snow Light Snow
8:00 AM 12.2 °F 4.3 °F 10.4 °F 92% 30.38 in 2.5 mi SE 4.6 mph - N/A Snow Light Snow
8:09 AM 12.2 °F 2.9 °F 10.4 °F 92% 30.38 in 2.5 mi SE 5.8 mph - N/A Snow Light Snow
8:48 AM 12.2 °F 0.7 °F 8.6 °F 85% 30.39 in 5.0 mi SE 8.1 mph - N/A Snow Light Snow
9:00 AM 14.0 °F 2.9 °F 8.6 °F 79% 30.40 in 4.0 mi SSE 8.1 mph - N/A Snow Light Snow
10:00 AM 15.8 °F 6.1 °F 10.4 °F 79% 30.41 in 8.0 mi South 6.9 mph - N/A Snow Light Snow
11:00 AM 15.8 °F 7.2 °F 10.4 °F 79% 30.42 in 9.0 mi South 5.8 mph - N/A Snow Light Snow
12:00 PM 19 °F - 11 °F 61% 30.43 in 10 mi South 6.9 mph - - Snow Light Snow
12:00 PM 19.4 °F 10.4 °F 10.4 °F 68% 30.42 in 10.0 mi South 6.9 mph - N/A Snow Light Snow
1:00 PM 19.4 °F 10.4 °F 12.2 °F 74% 30.43 in 10.0 mi SE 6.9 mph - N/A Snow Light Snow
2:00 PM 21.2 °F 11.7 °F 12.2 °F 68% 30.43 in 6.0 mi SE 8.1 mph - N/A Snow Light Snow
3:00 PM 21.2 °F 11.7 °F 14.0 °F 74% 30.44 in 6.0 mi SE 8.1 mph - N/A Snow Light Snow
4:00 PM 23.0 °F 12.4 °F 12.2 °F 63% 30.44 in 15.0 mi SSE 10.4 mph - N/A   Mostly Cloudy
5:00 PM 23.0 °F 12.4 °F 12.2 °F 63% 30.45 in 15.0 mi SSE 10.4 mph - N/A   Mostly Cloudy
6:00 PM 22 °F - 14 °F 59% 30.47 in 15 mi SE 9.2 mph - - Snow Light Snow
6:00 PM 21.2 °F 10.9 °F 14.0 °F 74% 30.46 in 15.0 mi SE 9.2 mph - N/A Snow Light Snow
6:28 PM 23.0 °F 13.1 °F 12.2 °F 63% 30.46 in 15.0 mi SE 9.2 mph - N/A   Mostly Cloudy
7:00 PM 21.2 °F 12.6 °F 12.2 °F 68% 30.47 in 15.0 mi SE 6.9 mph - N/A   Scattered Clouds
8:00 PM 17.6 °F 9.3 °F 12.2 °F 79% 30.49 in 15.0 mi South 5.8 mph - N/A   Partly Cloudy
9:00 PM 15.8 °F 7.2 °F 12.2 °F 86% 30.51 in 15.0 mi South 5.8 mph - N/A   Partly Cloudy
10:00 PM 15.8 °F 7.2 °F 12.2 °F 86% 30.27 in 15.0 mi SSE 5.8 mph - N/A   Partly Cloudy